Dyersburg, TN

2:07 PM CST on January 20, 2018 (GMT -0600)
Dyersburg Municipal

Weather History for KDYR - February, 2014

Change the Weather History Date:

Wednesday, February 19, 2014

  Actual Average Record
Temperature  
Mean Temperature 56 °F -  
Max Temperature 62 °F 50 °F 68 °F (2016)
Min Temperature 50 °F 35 °F 8 °F (2015)
Degree Days  
Heating Degree Days 9    
Growing Degree Days 6 (Base 50)    
Moisture  
Dew Point 38 °F    
Average Humidity 50    
Maximum Humidity 77    
Minimum Humidity 29    
Precipitation  
Precipitation 0.00 in - - ()
Sea Level Pressure  
Sea Level Pressure 29.96 in    
Wind  
Wind Speed 12 mph (ENE)    
Max Wind Speed 22 mph    
Max Gust Speed 30 mph    
Visibility 10 miles    
Events      
Averages and records for this station are not official NWS values.
T = Trace of Precipitation, MM = Missing Value Source: NWS Daily Summary

Daily Weather History Graph

Daily Weather History Graph

Search for Another Location

Airport or City:

Trip Planner

Search our weather history database for the weather conditions in past years. The results will help you decide how hot, cold, wet, or windy it might be!

Date:

Astronomy

Feb. 19, 2014 Rise Set
Actual Time 6:40 AM CST 5:43 PM CST
Civil Twilight 6:14 AM CST 6:09 PM CST
Nautical Twilight 5:44 AM CST 6:39 PM CST
Astronomical Twilight 5:14 AM CST 7:08 PM CST
Moon 10:25 PM CST (2/19) 8:55 AM CST (2/19)
Length of Visible Light 11h 54m
Length of Day
11h 02m
Waning Gibbous, 79% of the Moon is Illuminated
Feb 19
Waning Gibbous
Feb 22
Last Quarter
Mar 1
New
Mar 8
First Quarter
Mar 16
Full

Hourly Weather History & Observations

Time (CST) Temp. Dew Point Humidity Pressure Visibility Wind Dir Wind Speed Gust Speed Precip Events Conditions
12:15 AM 62.6 °F 51.8 °F 68% 29.90 in 10.0 mi WSW 19.6 mph 29.9 mph N/A   Clear
12:35 AM 62.6 °F 51.8 °F 68% 29.89 in 10.0 mi WSW 21.9 mph 28.8 mph N/A   Partly Cloudy
12:55 AM 62.6 °F 51.8 °F 68% 29.90 in 10.0 mi WSW 18.4 mph 26.5 mph N/A   Partly Cloudy
1:15 AM 62.6 °F 51.8 °F 68% 29.90 in 10.0 mi WSW 18.4 mph - N/A   Clear
1:35 AM 60.8 °F 51.8 °F 72% 29.89 in 10.0 mi SW 18.4 mph 26.5 mph N/A   Clear
1:55 AM 60.8 °F 51.8 °F 72% 29.90 in 10.0 mi WSW 16.1 mph 23.0 mph N/A   Clear
2:15 AM 60.8 °F 51.8 °F 72% 29.90 in 10.0 mi WSW 18.4 mph 23.0 mph N/A   Clear
2:35 AM 60.8 °F 51.8 °F 72% 29.90 in 10.0 mi WSW 15.0 mph 23.0 mph N/A   Clear
2:55 AM 60.8 °F 51.8 °F 72% 29.91 in 10.0 mi WSW 15.0 mph 19.6 mph N/A   Clear
3:15 AM 59.0 °F 50.0 °F 72% 29.91 in 10.0 mi WSW 12.7 mph - N/A   Clear
3:35 AM 57.2 °F 50.0 °F 77% 29.91 in 10.0 mi WSW 10.4 mph - N/A   Clear
3:55 AM 57.2 °F 48.2 °F 72% 29.92 in 10.0 mi WSW 9.2 mph - N/A   Clear
4:15 AM 57.2 °F 48.2 °F 72% 29.93 in 10.0 mi West 11.5 mph - N/A   Clear
4:35 AM 57.2 °F 48.2 °F 72% 29.95 in 8.0 mi West 8.1 mph - N/A   Scattered Clouds
4:55 AM 57.2 °F 48.2 °F 72% 29.96 in 7.0 mi West 6.9 mph - N/A   Overcast
5:15 AM 55.4 °F 48.2 °F 77% 29.96 in 7.0 mi West 9.2 mph - N/A   Scattered Clouds
5:35 AM 55.4 °F 46.4 °F 72% 29.97 in 7.0 mi West 8.1 mph - N/A   Partly Cloudy
5:55 AM 53.6 °F 44.6 °F 72% 29.98 in 10.0 mi WNW 6.9 mph - N/A   Clear
6:15 AM 51.8 °F 42.8 °F 71% 30.00 in 10.0 mi WNW 5.8 mph - N/A   Clear
6:35 AM 51.8 °F 39.2 °F 62% 30.01 in 10.0 mi NW 3.5 mph - N/A   Clear
6:55 AM 51.8 °F 37.4 °F 58% 30.03 in 10.0 mi NNW 5.8 mph - N/A   Clear
7:15 AM 50.0 °F 35.6 °F 58% 30.03 in 10.0 mi NNW 5.8 mph - N/A   Clear
7:35 AM 51.8 °F 35.6 °F 54% 30.04 in 10.0 mi North 8.1 mph - N/A   Clear
7:55 AM 51.8 °F 35.6 °F 54% 30.05 in 10.0 mi North 9.2 mph - N/A   Clear
8:15 AM 51.8 °F 33.8 °F 50% 30.05 in 10.0 mi North 8.1 mph - N/A   Clear
8:35 AM 51.8 °F 33.8 °F 50% 30.05 in 10.0 mi NNE 10.4 mph - N/A   Clear
8:55 AM 53.6 °F 33.8 °F 47% 30.06 in 10.0 mi North 8.1 mph - N/A   Clear
9:15 AM 53.6 °F 33.8 °F 47% 30.06 in 10.0 mi NNE 11.5 mph 17.3 mph N/A   Clear
9:35 AM 53.6 °F 32.0 °F 44% 30.07 in 10.0 mi NNE 6.9 mph - N/A   Clear
9:55 AM 55.4 °F 32.0 °F 41% 30.07 in 10.0 mi NNE 11.5 mph - N/A   Clear
10:15 AM 55.4 °F 33.8 °F 44% 30.07 in 10.0 mi ENE 9.2 mph - N/A   Clear
10:35 AM 55.4 °F 32.0 °F 41% 30.07 in 10.0 mi NNE 9.2 mph - N/A   Clear
10:55 AM 57.2 °F 32.0 °F 38% 30.08 in 10.0 mi NE 6.9 mph - N/A   Clear
11:15 AM 57.2 °F 32.0 °F 38% 30.07 in 10.0 mi NE 5.8 mph - N/A   Clear
11:35 AM 57.2 °F 32.0 °F 38% 30.07 in 10.0 mi NE 5.8 mph - N/A   Clear
11:55 AM 59.0 °F 32.0 °F 36% 30.05 in 10.0 mi NE 6.9 mph - N/A   Clear
12:15 PM 59.0 °F 33.8 °F 39% 30.04 in 10.0 mi NE 5.8 mph - N/A   Clear
12:35 PM 60.8 °F 32.0 °F 34% 30.03 in 10.0 mi NE 6.9 mph - N/A   Clear
12:55 PM 60.8 °F 33.8 °F 36% 30.03 in 10.0 mi ENE 9.2 mph - N/A   Clear
1:15 PM 60.8 °F 32.0 °F 34% 30.01 in 10.0 mi ENE 9.2 mph - N/A   Clear
1:35 PM 60.8 °F 30.2 °F 31% 30.01 in 10.0 mi ENE 5.8 mph - N/A   Clear
1:55 PM 60.8 °F 28.4 °F 29% 30.00 in 10.0 mi ENE 6.9 mph - N/A   Clear
2:15 PM 62.6 °F 30.2 °F 30% 30.00 in 10.0 mi ENE 6.9 mph - N/A   Clear
2:35 PM 62.6 °F 30.2 °F 30% 29.99 in 10.0 mi ENE 4.6 mph - N/A   Clear
2:55 PM 62.6 °F 30.2 °F 30% 29.98 in 10.0 mi NE 9.2 mph - N/A   Clear
3:15 PM 62.6 °F 32.0 °F 32% 29.98 in 10.0 mi East 6.9 mph - N/A   Clear
3:35 PM 62.6 °F 33.8 °F 34% 29.98 in 10.0 mi ENE 5.8 mph - N/A   Clear
3:55 PM 62.6 °F 30.2 °F 30% 29.98 in 10.0 mi East 6.9 mph - N/A   Clear
4:15 PM 62.6 °F 30.2 °F 30% 29.96 in 8.0 mi East 8.1 mph - N/A   Clear
4:35 PM 62.6 °F 30.2 °F 30% 29.96 in 8.0 mi ESE 8.1 mph - N/A   Clear
4:55 PM 60.8 °F 30.2 °F 31% 29.96 in 10.0 mi East 3.5 mph - N/A   Partly Cloudy
5:15 PM 60.8 °F 32.0 °F 34% 29.96 in 10.0 mi ENE 3.5 mph - N/A   Mostly Cloudy
5:35 PM 60.8 °F 33.8 °F 36% 29.96 in 10.0 mi ENE 4.6 mph - N/A   Mostly Cloudy
5:55 PM 59.0 °F 33.8 °F 39% 29.96 in 10.0 mi ENE 4.6 mph - N/A   Overcast
6:15 PM 59.0 °F 33.8 °F 39% 29.95 in 10.0 mi East 4.6 mph - N/A   Overcast
6:35 PM 59.0 °F 32.0 °F 36% 29.94 in 10.0 mi East 5.8 mph - N/A   Mostly Cloudy
6:55 PM 59.0 °F 32.0 °F 36% 29.93 in 10.0 mi East 5.8 mph - N/A   Clear
7:15 PM 59.0 °F 32.0 °F 36% 29.93 in 10.0 mi East 6.9 mph - N/A   Clear
7:35 PM 59.0 °F 32.0 °F 36% 29.91 in 10.0 mi East 8.1 mph - N/A   Partly Cloudy
7:55 PM 60.8 °F 32.0 °F 34% 29.90 in 10.0 mi East 9.2 mph - N/A   Partly Cloudy
8:15 PM 59.0 °F 33.8 °F 39% 29.91 in 10.0 mi ESE 9.2 mph - N/A   Mostly Cloudy
8:35 PM 57.2 °F 33.8 °F 41% 29.91 in 10.0 mi ESE 8.1 mph - N/A   Scattered Clouds
8:55 PM 57.2 °F 35.6 °F 44% 29.91 in 10.0 mi SE 6.9 mph - N/A   Mostly Cloudy
9:15 PM 59.0 °F 35.6 °F 42% 29.91 in 10.0 mi SE 6.9 mph - N/A   Mostly Cloudy
9:35 PM 59.0 °F 37.4 °F 45% 29.90 in 10.0 mi SE 9.2 mph - N/A   Overcast
9:55 PM 60.8 °F 41.0 °F 48% 29.90 in 10.0 mi SE 6.9 mph - N/A   Overcast
10:15 PM 60.8 °F 42.8 °F 52% 29.89 in 10.0 mi SSE 9.2 mph - N/A   Overcast
10:35 PM 60.8 °F 42.8 °F 52% 29.87 in 10.0 mi SE 8.1 mph - N/A   Overcast
10:55 PM 60.8 °F 44.6 °F 55% 29.87 in 10.0 mi SE 8.1 mph - N/A   Mostly Cloudy
11:15 PM 60.8 °F 46.4 °F 59% 29.86 in 10.0 mi SE 8.1 mph - N/A   Overcast
11:35 PM 60.8 °F 46.4 °F 59% 29.85 in 10.0 mi SE 8.1 mph - N/A   Overcast
11:55 PM 60.8 °F 48.2 °F 63% 29.83 in 10.0 mi SE 9.2 mph - N/A   Mostly Cloudy